Snowfall_Accumulation
1.2 2.7 4.1 1.4 1.4 1.8 1.5 1.7 1.5 0.7 0.2 0.4 0.4 0.2 0.0 0.0 0.0 0.0 0.0 0.0 0.0 0.0 0.0 0.0 0.0 0.0 0.0 0.0 0.0 0.0 0.0 0.0 0.0 0.0 0.0 0.0 0.0 0.0 0.0 0.0 0.0 0.0 0.0 0.0
3.4 3.7 1.2 0.5 0.7 1.3 1.9 2.5 1.7 0.5 0.2 0.6 0.6 0.3 0.1 0.0 0.0 0.0 0.0 0.0 0.0 0.0 0.0 0.0 0.0 0.0 0.0 0.0 0.0 0.0 0.0 0.0 0.0 0.0 0.0 0.0 0.0 0.0 0.0 0.0 0.0 0.0 0.0 0.0
4.2 2.0 0.3 0.8 1.3 2.4 2.2 2.4 1.6 1.6 0.5 0.5 1.2 0.9 0.3 0.0 0.0 0.0 0.0 0.0 0.0 0.0 0.0 0.0 0.0 0.0 0.0 0.0 0.0 0.0 0.0 0.0 0.0 0.0 0.0 0.0 0.0 0.0 0.0 0.0 0.0 0.0 0.0 0.0
2.5 0.7 0.7 1.3 1.9 2.1 2.6 0.8 1.0 1.7 2.6 2.9 2.1 2.8 0.5 0.1 0.1 0.0 0.0 0.0 0.0 0.0 0.0 0.0 0.0 0.0 0.0 0.0 0.0 0.0 0.0 0.0 0.0 0.0 0.0 0.0 0.0 0.0 0.0 0.0 0.0 0.0 0.0 0.0
2.9 0.7 0.8 1.9 1.3 1.3 1.2 0.4 0.8 1.8 3.3 4.0 1.9 3.3 0.9 0.2 0.3 0.1 0.0 0.0 0.0 0.0 0.0 0.0 0.0 0.0 0.0 0.0 0.0 0.0 0.0 0.0 0.0 0.0 0.0 0.0 0.0 0.0 0.0 0.0 0.0 0.0 0.0 0.0
2.1 0.7 0.5 0.7 0.3 0.6 0.8 0.7 1.2 2.2 4.9 8.5 2.2 2.4 1.4 0.9 0.8 0.5 0.1 0.1 0.1 0.0 0.0 0.0 0.0 0.0 0.0 0.0 0.0 0.0 0.0 0.0 0.0 0.0 0.0 0.0 0.0 0.0 0.0 0.0 0.0 0.0 0.0 0.0
3.9 2.2 1.0 0.6 1.6 1.4 2.2 6.2 15.6 17.1 15.1 6.6 1.0 1.5 1.7 1.1 0.9 0.9 0.5 0.3 0.2 0.1 0.0 0.0 0.0 0.0 0.0 0.0 0.0 0.0 0.0 0.0 0.0 0.0 0.0 0.0 0.0 0.0 0.0 0.0 0.0 0.0 0.0 0.0
6.1 5.3 2.3 1.0 1.6 2.7 2.7 5.0 10.6 11.9 7.8 2.9 1.3 1.6 1.4 0.8 0.4 0.4 0.3 0.2 0.2 0.2 0.1 0.0 0.0 0.0 0.0 0.0 0.0 0.0 0.0 0.0 0.0 0.0 0.0 0.0 0.0 0.0 0.0 0.0 0.0 0.0 0.0 0.0
6.3 4.7 1.2 0.7 0.8 1.9 4.1 4.6 3.1 6.1 5.6 4.3 2.6 1.5 0.8 0.3 0.2 0.2 0.3 0.3 0.2 0.2 0.1 0.1 0.0 0.0 0.0 0.0 0.0 0.0 0.0 0.0 0.0 0.0 0.0 0.0 0.0 0.0 0.0 0.0 0.0 0.0 0.1 0.1
6.5 6.2 2.1 0.8 1.1 1.1 1.8 2.6 4.4 9.0 10.1 6.1 2.8 1.7 1.9 1.3 0.7 0.5 0.4 0.3 0.4 0.3 0.2 0.1 0.1 0.0 0.0 0.0 0.0 0.0 0.0 0.0 0.0 0.0 0.0 0.0 0.0 0.0 0.0 0.0 0.0 0.0 0.1 0.1
4.9 7.4 5.1 2.7 4.5 4.0 2.8 4.3 6.5 7.9 7.0 6.6 3.8 2.4 2.2 1.9 1.2 0.9 0.7 0.6 0.6 0.7 0.6 0.3 0.3 0.2 0.1 0.1 0.0 0.0 0.0 0.0 0.0 0.0 0.0 0.0 0.0 0.0 0.0 0.0 0.0 0.0 0.1 0.1
4.5 6.8 6.9 4.0 1.8 1.7 2.5 3.8 5.6 9.9 8.5 5.0 4.5 2.6 1.8 1.7 1.2 1.1 0.9 0.6 0.5 0.7 0.8 0.6 0.4 0.3 0.2 0.2 0.0 0.0 0.1 0.1 0.1 0.1 0.1 0.1 0.0 0.0 0.0 0.0 0.1 0.1 0.1 0.1
6.1 9.0 10.9 5.3 3.3 1.9 3.7 3.5 4.0 5.5 6.7 6.4 5.8 2.7 1.4 1.4 1.2 1.1 1.0 0.7 0.5 0.5 0.7 0.6 0.5 0.4 0.3 0.3 0.2 0.1 0.1 0.2 0.1 0.1 0.1 0.1 0.1 0.0 0.1 0.1 0.1 0.1 0.1 0.2
5.1 11.4 9.1 8.0 5.7 5.7 6.0 4.7 4.1 5.6 9.5 6.9 3.5 2.3 1.8 1.6 1.5 1.3 1.3 1.1 0.7 0.5 0.5 0.6 0.7 0.5 0.4 0.5 0.4 0.3 0.3 0.3 0.2 0.2 0.2 0.4 0.5 0.6 0.5 0.2 0.2 0.2 0.3 0.6
5.1 10.8 5.4 3.3 2.4 2.6 3.5 3.4 3.3 4.5 4.9 5.4 3.1 2.5 2.7 2.5 2.4 2.1 1.9 1.7 0.9 0.8 0.8 0.8 0.7 0.7 0.5 0.6 0.6 0.4 0.5 0.5 0.4 1.0 1.5 1.7 1.2 1.2 0.9 0.7 0.5 0.3 0.5 0.7
6.7 9.8 5.4 3.8 2.0 1.9 2.4 2.2 2.3 2.8 2.9 2.9 2.3 2.5 2.6 2.4 2.1 1.8 1.7 1.9 1.7 1.5 1.3 1.1 0.9 0.9 0.9 1.0 1.4 1.3 1.2 1.0 2.0 2.8 2.9 2.7 2.1 1.8 2.0 1.3 0.9 0.9 0.9 0.7
6.6 8.1 9.4 6.5 2.7 3.7 5.2 3.1 3.0 3.1 3.1 3.0 3.1 2.8 2.5 2.3 2.2 2.0 1.8 1.8 1.9 1.8 1.7 1.5 1.1 1.2 1.4 1.6 2.3 2.0 2.3 2.4 2.8 3.0 3.0 2.9 2.6 2.6 2.3 2.0 1.7 1.7 1.6 1.3
5.6 6.9 11.1 9.4 7.0 10.3 3.6 2.4 2.8 2.8 3.1 2.9 2.9 2.7 2.4 2.4 2.3 1.9 1.8 1.8 1.9 2.0 1.9 1.8 1.3 1.2 1.2 1.7 1.9 2.5 3.1 3.0 3.1 2.9 2.7 2.3 1.9 1.8 1.8 1.6 1.5 1.4 1.2 1.2
2.2 5.8 11.9 12.7 10.2 5.1 1.7 1.6 2.6 3.1 3.4 3.1 2.9 2.4 2.1 1.7 1.4 1.5 1.9 2.1 2.1 2.1 1.6 1.4 1.4 1.0 1.4 2.3 2.7 3.0 3.1 2.9 2.7 2.0 1.9 1.4 1.0 1.1 1.3 1.3 1.3 1.1 1.0 0.8
2.2 4.5 11.4 13.7 11.7 5.8 2.0 1.2 1.6 2.7 3.7 2.5 2.5 2.6 2.3 2.1 3.7 2.9 2.3 2.0 1.7 1.5 1.2 0.9 0.9 0.9 1.2 1.5 1.8 2.0 2.2 2.3 2.2 1.7 1.1 0.9 1.0 0.8 1.1 1.0 1.0 0.7 0.8 0.7
6.2 9.4 12.4 12.0 10.9 3.9 1.6 1.0 1.1 3.7 5.5 2.6 2.6 2.8 3.1 4.0 4.9 3.3 2.1 1.7 1.5 1.4 1.3 1.0 0.7 0.9 1.4 1.7 1.7 1.8 1.8 1.7 1.7 1.3 1.1 1.0 1.0 1.0 1.2 1.1 1.4 1.1 1.1 1.0
5.5 8.4 9.5 9.5 11.9 5.5 1.8 1.7 3.2 4.3 2.4 2.2 2.5 2.5 3.6 3.2 2.1 1.8 1.8 2.0 1.5 1.4 1.4 1.4 1.4 1.7 1.9 2.0 1.9 1.9 1.8 1.4 1.0 1.0 1.3 1.3 1.5 1.2 1.3 1.3 1.6 1.6 1.7 1.6
4.4 5.5 6.0 5.6 5.1 3.3 2.6 3.0 3.0 2.2 2.7 2.7 3.5 3.6 3.7 3.8 3.2 2.9 2.5 2.1 1.9 1.8 1.8 1.9 2.2 2.5 2.4 2.2 1.9 1.9 1.7 1.2 1.0 1.0 1.1 1.2 1.2 1.3 1.3 1.3 1.7 1.8 2.0 2.2
3.1 2.9 4.0 4.3 3.0 2.4 2.1 1.9 1.6 1.6 2.4 3.0 3.1 3.4 3.5 4.1 3.7 3.4 2.9 2.7 2.7 2.7 2.6 2.6 2.4 2.6 2.8 2.3 2.0 1.9 1.7 1.0 1.0 1.4 1.4 1.5 1.6 1.4 1.5 1.4 1.6 1.9 2.5 3.7
2.8 2.7 3.4 3.3 2.5 2.0 1.9 1.9 1.8 1.9 1.9 2.0 2.1 2.4 3.3 3.9 3.9 3.4 3.3 3.5 3.6 3.5 3.3 3.1 3.1 3.2 2.8 2.0 1.7 1.8 2.0 1.7 1.9 2.0 2.0 2.0 2.1 2.0 2.0 2.1 2.1 2.4 2.8 4.5
2.4 3.2 3.6 3.5 2.5 2.5 2.4 2.1 1.9 2.2 2.2 2.3 2.4 2.5 2.7 3.2 3.5 3.2 3.4 3.8 3.7 3.7 3.7 3.6 3.2 2.8 2.6 2.0 1.9 1.8 1.7 1.8 1.8 2.1 2.3 2.3 2.6 2.5 2.5 2.6 2.3 1.9 2.3 3.0